| time (UTC) | temp C | wind direction | speed KPH | gust KPH | rain 1hr cm | rain 24hr cm | rain mn cm | humidity % | barometer mb |
| 20260504060150 | 14 | 212 | 0.0 | 0.0 | 0.00 | 0.00 | 0.00 | 50 | 1009.9 |
| 20260504050618 | 15 | 242 | 0.0 | 0.0 | 0.00 | 0.00 | 0.00 | 48 | 1010.4 |
| 20260504050115 | 15 | 242 | 0.0 | 0.0 | 0.00 | 0.00 | 0.00 | 48 | 1010.4 |
| 20260504045612 | 15 | 242 | 0.0 | 0.0 | 0.00 | 0.00 | 0.00 | 47 | 1010.3 |
| 20260504045107 | 15 | 243 | 0.0 | 1.6 | 0.00 | 0.00 | 0.00 | 48 | 1010.6 |
| 20260504044605 | 15 | 239 | 1.6 | 1.6 | 0.00 | 0.00 | 0.00 | 48 | 1010.7 |
| 20260504044102 | 15 | 242 | 1.6 | 1.6 | 0.00 | 0.00 | 0.00 | 47 | 1010.7 |
| 20260504043559 | 15 | 246 | 0.0 | 0.0 | 0.00 | 0.00 | 0.00 | 47 | 1010.7 |
| 20260504043056 | 15 | 247 | 1.6 | 1.6 | 0.00 | 0.00 | 0.00 | 47 | 1010.9 |
| 20260504042553 | 15 | 248 | 1.6 | 1.6 | 0.00 | 0.00 | 0.00 | 47 | 1010.9 |
| 20260504042049 | 16 | 253 | 1.6 | 1.6 | 0.00 | 0.00 | 0.00 | 45 | 1010.9 |
| 20260504041545 | 16 | 253 | 1.6 | 1.6 | 0.00 | 0.00 | 0.00 | 46 | 1011.0 |
| 20260504041041 | 16 | 265 | 0.0 | 0.0 | 0.00 | 0.00 | 0.00 | 45 | 1010.9 |
| 20260504040539 | 16 | 264 | 0.0 | 1.6 | 0.00 | 0.00 | 0.00 | 45 | 1011.0 |
| 20260504040035 | 16 | 266 | 1.6 | 1.6 | 0.00 | 0.00 | 0.00 | 44 | 1010.8 |
| 20260504035532 | 16 | 265 | 1.6 | 3.2 | 0.00 | 0.00 | 0.00 | 44 | 1010.9 |
| 20260504035028 | 16 | 264 | 4.8 | 4.8 | 0.00 | 0.00 | 0.00 | 44 | 1011.1 |
| 20260504034526 | 16 | 260 | 1.6 | 3.2 | 0.00 | 0.00 | 0.00 | 44 | 1011.2 |
| 20260504034023 | 17 | 263 | 1.6 | 1.6 | 0.00 | 0.00 | 0.00 | 44 | 1011.1 |
| 20260504033521 | 17 | 259 | 3.2 | 3.2 | 0.00 | 0.00 | 0.00 | 44 | 1011.1 |
| 20260504033018 | 17 | 272 | 1.6 | 3.2 | 0.00 | 0.00 | 0.00 | 44 | 1011.0 |
| 20260504032515 | 17 | 264 | 1.6 | 1.6 | 0.00 | 0.00 | 0.00 | 44 | 1011.2 |
| 20260504032011 | 17 | 268 | 4.8 | 4.8 | 0.00 | 0.00 | 0.00 | 43 | 1011.2 |
| 20260504031509 | 17 | 264 | 0.0 | 1.6 | 0.00 | 0.00 | 0.00 | 43 | 1011.0 |
| 20260504031005 | 17 | 251 | 1.6 | 1.6 | 0.00 | 0.00 | 0.00 | 43 | 1011.2 |
| 20260504030502 | 17 | 263 | 3.2 | 3.2 | 0.00 | 0.00 | 0.00 | 42 | 1011.2 |
| 20260504025958 | 17 | 263 | 1.6 | 3.2 | 0.00 | 0.00 | 0.00 | 42 | 1011.3 |
| 20260504025455 | 17 | 264 | 1.6 | 3.2 | 0.00 | 0.00 | 0.00 | 42 | 1011.0 |
| 20260504024952 | 18 | 260 | 1.6 | 3.2 | 0.00 | 0.00 | 0.00 | 41 | 1011.1 |
| 20260504024449 | 18 | 273 | 3.2 | 3.2 | 0.00 | 0.00 | 0.00 | 41 | 1011.1 |
| 20260504023946 | 18 | 258 | 0.0 | 0.0 | 0.00 | 0.00 | 0.00 | 40 | 1010.9 |
| 20260504023443 | 18 | 263 | 0.0 | 1.6 | 0.00 | 0.00 | 0.00 | 39 | 1011.1 |
| 20260504022938 | 18 | 255 | 1.6 | 1.6 | 0.00 | 0.00 | 0.00 | 39 | 1011.0 |
| 20260504022435 | 19 | 266 | 3.2 | 3.2 | 0.00 | 0.00 | 0.00 | 38 | 1010.8 |
| 20260504021931 | 19 | 277 | 4.8 | 8.0 | 0.00 | 0.00 | 0.00 | 37 | 1010.8 |
| 20260504021429 | 19 | 267 | 3.2 | 3.2 | 0.00 | 0.00 | 0.00 | 37 | 1010.7 |
| 20260504020926 | 19 | 261 | 6.4 | 8.0 | 0.00 | 0.00 | 0.00 | 36 | 1010.9 |
| 20260504020423 | 19 | 258 | 3.2 | 3.2 | 0.00 | 0.00 | 0.00 | 37 | 1010.6 |
| 20260504015919 | 19 | 244 | 1.6 | 1.6 | 0.00 | 0.00 | 0.00 | 37 | 1010.9 |
| 20260504015415 | 19 | 244 | 1.6 | 1.6 | 0.00 | 0.00 | 0.00 | 37 | 1010.5 |
| 20260504014911 | 20 | 259 | 3.2 | 3.2 | 0.00 | 0.00 | 0.00 | 35 | 1010.4 |
| 20260504014407 | 20 | 274 | 6.4 | 8.0 | 0.00 | 0.00 | 0.00 | 35 | 1010.4 |
| 20260504013904 | 20 | 278 | 3.2 | 3.2 | 0.00 | 0.00 | 0.00 | 35 | 1010.3 |
| 20260504013403 | 20 | 266 | 3.2 | 3.2 | 0.00 | 0.00 | 0.00 | 35 | 1010.4 |
| 20260504012859 | 20 | 255 | 1.6 | 1.6 | 0.00 | 0.00 | 0.00 | 35 | 1010.4 |
| 20260504012357 | 20 | 267 | 0.0 | 3.2 | 0.00 | 0.00 | 0.00 | 34 | 1010.5 |
| 20260504011854 | 20 | 266 | 1.6 | 1.6 | 0.00 | 0.00 | 0.00 | 34 | 1010.5 |
| 20260504011350 | 21 | 257 | 1.6 | 3.2 | 0.00 | 0.00 | 0.00 | 33 | 1010.1 |
| 20260504010846 | 21 | 265 | 0.0 | 1.6 | 0.00 | 0.00 | 0.00 | 33 | 1010.4 |
| 20260504010342 | 21 | 283 | 1.6 | 3.2 | 0.00 | 0.00 | 0.00 | 33 | 1010.3 |
| 20260504005839 | 21 | 262 | 9.7 | 11.3 | 0.00 | 0.00 | 0.00 | 32 | 1010.1 |
| 20260504005336 | 21 | 280 | 1.6 | 3.2 | 0.00 | 0.00 | 0.00 | 31 | 1010.4 |
| 20260504004833 | 22 | 266 | 1.6 | 3.2 | 0.00 | 0.00 | 0.00 | 31 | 1010.4 |
| 20260504004331 | 22 | 255 | 4.8 | 4.8 | 0.00 | 0.00 | 0.00 | 30 | 1010.2 |
| 20260504003827 | 22 | 265 | 3.2 | 3.2 | 0.00 | 0.00 | 0.00 | 31 | 1010.2 |
| 20260504003324 | 22 | 284 | 4.8 | 8.0 | 0.00 | 0.00 | 0.00 | 30 | 1010.2 |
| 20260504002821 | 22 | 289 | 4.8 | 4.8 | 0.00 | 0.00 | 0.00 | 30 | 1010.1 |
| 20260504002317 | 23 | 263 | 3.2 | 3.2 | 0.00 | 0.00 | 0.00 | 30 | 1010.1 |
| 20260504001810 | 23 | 282 | 4.8 | 4.8 | 0.00 | 0.00 | 0.00 | 30 | 1010.1 |
| 20260504001307 | 23 | 254 | 3.2 | 4.8 | 0.00 | 0.00 | 0.00 | 29 | 1010.0 |
| 20260504000804 | 23 | 270 | 3.2 | 3.2 | 0.00 | 0.00 | 0.00 | 29 | 1009.8 |
| 20260504000301 | 23 | 263 | 4.8 | 4.8 | 0.00 | 0.00 | 0.00 | 28 | 1010.2 |
| 20260503235759 | 23 | 263 | 1.6 | 1.6 | 0.00 | 0.00 | 0.00 | 29 | 1010.0 |
| 20260503235256 | 23 | 262 | 3.2 | 3.2 | 0.00 | 0.00 | 0.00 | 28 | 1009.7 |
| 20260503234753 | 23 | 272 | 6.4 | 9.7 | 0.00 | 0.00 | 0.00 | 29 | 1010.1 |
| 20260503234245 | 23 | 0 | 8.0 | 11.3 | 0.00 | 0.00 | 0.00 | 28 | 1009.9 |
| 20260503233742 | 23 | 322 | 1.6 | 3.2 | 0.00 | 0.00 | 0.00 | 28 | 1009.7 |
| 20260503233238 | 23 | 333 | 4.8 | 4.8 | 0.00 | 0.00 | 0.00 | 28 | 1009.9 |
| 20260503232735 | 23 | 337 | 8.0 | 11.3 | 0.00 | 0.00 | 0.00 | 28 | 1010.0 |
| 20260503232232 | 23 | 260 | 0.0 | 0.0 | 0.00 | 0.00 | 0.00 | 29 | 1010.1 |
| 20260503231730 | 23 | 324 | 1.6 | 3.2 | 0.00 | 0.00 | 0.00 | 29 | 1010.0 |
| 20260503231227 | 23 | 305 | 4.8 | 4.8 | 0.00 | 0.00 | 0.00 | 29 | 1010.2 |
| 20260503230722 | 23 | 279 | 4.8 | 8.0 | 0.00 | 0.00 | 0.00 | 29 | 1009.8 |
| 20260503230220 | 23 | 299 | 4.8 | 8.0 | 0.00 | 0.00 | 0.00 | 29 | 1010.0 |
| 20260503225712 | 24 | 321 | 4.8 | 8.0 | 0.00 | 0.00 | 0.00 | 29 | 1010.0 |
| 20260503225212 | 24 | 326 | 6.4 | 9.7 | 0.00 | 0.00 | 0.00 | 29 | 1010.0 |
| 20260503224709 | 24 | 248 | 4.8 | 8.0 | 0.00 | 0.00 | 0.00 | 29 | 1009.9 |
| 20260503224207 | 23 | 261 | 0.0 | 1.6 | 0.00 | 0.00 | 0.00 | 30 | 1010.0 |
| 20260503223705 | 23 | 257 | 11.3 | 16.1 | 0.00 | 0.00 | 0.00 | 30 | 1010.0 |
| 20260503223201 | 23 | 292 | 9.7 | 11.3 | 0.00 | 0.00 | 0.00 | 30 | 1010.1 |
| 20260503222658 | 24 | 320 | 8.0 | 11.3 | 0.00 | 0.00 | 0.00 | 30 | 1009.8 |
| 20260503222156 | 24 | 263 | 4.8 | 9.7 | 0.00 | 0.00 | 0.00 | 30 | 1009.8 |
| 20260503221654 | 23 | 259 | 6.4 | 9.7 | 0.00 | 0.00 | 0.00 | 30 | 1009.7 |
| 20260503221151 | 23 | 304 | 4.8 | 8.0 | 0.00 | 0.00 | 0.00 | 30 | 1009.7 |
| 20260503220648 | 24 | 275 | 4.8 | 4.8 | 0.00 | 0.00 | 0.00 | 31 | 1009.7 |
| 20260503220144 | 23 | 314 | 3.2 | 3.2 | 0.00 | 0.00 | 0.00 | 32 | 1009.8 |
| 20260503215642 | 23 | 250 | 9.7 | 12.9 | 0.00 | 0.00 | 0.00 | 31 | 1009.4 |
| 20260503215138 | 24 | 239 | 11.3 | 14.5 | 0.00 | 0.00 | 0.00 | 30 | 1009.4 |
| 20260503214637 | 23 | 1 | 6.4 | 8.0 | 0.00 | 0.00 | 0.00 | 31 | 1009.6 |
| 20260503214132 | 24 | 255 | 9.7 | 14.5 | 0.00 | 0.00 | 0.00 | 31 | 1009.7 |
| 20260503213632 | 24 | 263 | 8.0 | 14.5 | 0.00 | 0.00 | 0.00 | 32 | 1009.6 |
| 20260503213127 | 24 | 273 | 6.4 | 9.7 | 0.00 | 0.00 | 0.00 | 32 | 1009.6 |
| 20260503212625 | 24 | 315 | 9.7 | 12.9 | 0.00 | 0.00 | 0.00 | 31 | 1009.6 |
| 20260503212123 | 24 | 322 | 8.0 | 11.3 | 0.00 | 0.00 | 0.00 | 31 | 1009.6 |
| 20260503211621 | 25 | 298 | 4.8 | 9.7 | 0.00 | 0.00 | 0.00 | 31 | 1009.8 |
| 20260503211116 | 24 | 274 | 3.2 | 4.8 | 0.00 | 0.00 | 0.00 | 32 | 1009.6 |
| 20260503210612 | 23 | 254 | 6.4 | 8.0 | 0.00 | 0.00 | 0.00 | 32 | 1009.9 |
| 20260503210109 | 24 | 296 | 6.4 | 9.7 | 0.00 | 0.00 | 0.00 | 31 | 1009.7 |
| 20260503205604 | 24 | 337 | 16.1 | 27.4 | 0.00 | 0.00 | 0.00 | 32 | 1009.8 |
| 20260503205101 | 24 | 306 | 4.8 | 8.0 | 0.00 | 0.00 | 0.00 | 32 | 1009.7 |
| 20260503204558 | 23 | 304 | 1.6 | 3.2 | 0.00 | 0.00 | 0.00 | 32 | 1009.7 |
| 20260503204055 | 24 | 282 | 16.1 | 20.9 | 0.00 | 0.00 | 0.00 | 30 | 1010.0 |
| 20260503203552 | 24 | 268 | 9.7 | 14.5 | 0.00 | 0.00 | 0.00 | 30 | 1009.8 |
| 20260503203049 | 25 | 318 | 4.8 | 4.8 | 0.00 | 0.00 | 0.00 | 29 | 1009.9 |
| 20260503202547 | 24 | 220 | 1.6 | 1.6 | 0.00 | 0.00 | 0.00 | 31 | 1009.7 |
| 20260503202045 | 24 | 270 | 9.7 | 14.5 | 0.00 | 0.00 | 0.00 | 31 | 1010.1 |
| 20260503201543 | 23 | 259 | 8.0 | 14.5 | 0.00 | 0.00 | 0.00 | 33 | 1009.8 |
| 20260503201040 | 23 | 272 | 6.4 | 9.7 | 0.00 | 0.00 | 0.00 | 34 | 1010.0 |
| 20260503200536 | 23 | 315 | 4.8 | 8.0 | 0.00 | 0.00 | 0.00 | 35 | 1009.8 |
| 20260503200033 | 23 | 266 | 12.9 | 16.1 | 0.00 | 0.00 | 0.00 | 34 | 1010.0 |
| 20260503195530 | 23 | 284 | 9.7 | 12.9 | 0.00 | 0.00 | 0.00 | 35 | 1010.2 |
| 20260503195027 | 23 | 275 | 9.7 | 11.3 | 0.00 | 0.00 | 0.00 | 35 | 1010.0 |
| 20260503194525 | 23 | 255 | 9.7 | 12.9 | 0.00 | 0.00 | 0.00 | 35 | 1010.0 |
| 20260503194023 | 23 | 259 | 6.4 | 9.7 | 0.00 | 0.00 | 0.00 | 37 | 1010.1 |
| 20260503193521 | 23 | 265 | 8.0 | 11.3 | 0.00 | 0.00 | 0.00 | 38 | 1010.2 |
| 20260503193016 | 23 | 236 | 6.4 | 8.0 | 0.00 | 0.00 | 0.00 | 40 | 1010.3 |
| 20260503192512 | 22 | 270 | 19.3 | 27.4 | 0.00 | 0.00 | 0.00 | 38 | 1010.5 |
| 20260503192008 | 23 | 266 | 8.0 | 11.3 | 0.00 | 0.00 | 0.00 | 39 | 1010.5 |
| 20260503191505 | 23 | 260 | 6.4 | 9.7 | 0.00 | 0.00 | 0.00 | 40 | 1010.2 |
| 20260503191002 | 22 | 262 | 6.4 | 9.7 | 0.00 | 0.00 | 0.00 | 40 | 1010.4 |
| 20260503190459 | 22 | 248 | 8.0 | 11.3 | 0.00 | 0.00 | 0.00 | 41 | 1010.5 |
| 20260503185956 | 22 | 244 | 11.3 | 14.5 | 0.00 | 0.00 | 0.00 | 40 | 1010.7 |
| 20260503185452 | 22 | 267 | 4.8 | 8.0 | 0.00 | 0.00 | 0.00 | 42 | 1010.8 |
| 20260503184952 | 22 | 263 | 14.5 | 17.7 | 0.00 | 0.00 | 0.00 | 41 | 1010.7 |
| 20260503184448 | 22 | 208 | 12.9 | 16.1 | 0.00 | 0.00 | 0.00 | 42 | 1010.9 |
| 20260503183944 | 22 | 3 | 4.8 | 8.0 | 0.00 | 0.00 | 0.00 | 43 | 1010.8 |
| 20260503183441 | 21 | 196 | 6.4 | 9.7 | 0.00 | 0.00 | 0.00 | 44 | 1010.7 |
| 20260503182938 | 21 | 201 | 3.2 | 4.8 | 0.00 | 0.00 | 0.00 | 43 | 1011.1 |
| 20260503182437 | 21 | 197 | 3.2 | 4.8 | 0.00 | 0.00 | 0.00 | 47 | 1011.0 |
| 20260503181934 | 21 | 262 | 8.0 | 11.3 | 0.00 | 0.00 | 0.00 | 45 | 1011.4 |
| 20260503181431 | 20 | 264 | 11.3 | 12.9 | 0.00 | 0.00 | 0.00 | 44 | 1011.2 |
| 20260503180927 | 20 | 149 | 4.8 | 4.8 | 0.00 | 0.00 | 0.00 | 45 | 1011.2 |
| 20260503180427 | 20 | 218 | 12.9 | 17.7 | 0.00 | 0.00 | 0.00 | 45 | 1011.2 |
| 20260503175922 | 20 | 219 | 8.0 | 11.3 | 0.00 | 0.00 | 0.00 | 46 | 1011.4 |
| 20260503175420 | 20 | 265 | 9.7 | 14.5 | 0.00 | 0.00 | 0.00 | 45 | 1011.5 |
| 20260503174915 | 20 | 200 | 9.7 | 12.9 | 0.00 | 0.00 | 0.00 | 46 | 1011.6 |
| 20260503174415 | 20 | 223 | 8.0 | 11.3 | 0.00 | 0.00 | 0.00 | 46 | 1011.7 |
| 20260503173915 | 20 | 190 | 11.3 | 16.1 | 0.00 | 0.00 | 0.00 | 46 | 1011.7 |
| 20260503173411 | 19 | 282 | 6.4 | 11.3 | 0.00 | 0.00 | 0.00 | 47 | 1011.7 |
| 20260503172908 | 19 | 228 | 6.4 | 9.7 | 0.00 | 0.00 | 0.00 | 49 | 1011.9 |
| 20260503172405 | 18 | 198 | 3.2 | 3.2 | 0.00 | 0.00 | 0.00 | 49 | 1011.9 |
| 20260503171901 | 18 | 239 | 3.2 | 3.2 | 0.00 | 0.00 | 0.00 | 48 | 1012.1 |
| 20260503171358 | 18 | 226 | 14.5 | 17.7 | 0.00 | 0.00 | 0.00 | 48 | 1012.2 |
| 20260503170855 | 18 | 266 | 8.0 | 9.7 | 0.00 | 0.00 | 0.00 | 48 | 1012.0 |
| 20260503170352 | 18 | 203 | 9.7 | 12.9 | 0.00 | 0.00 | 0.00 | 49 | 1012.3 |
| 20260503150744 | 15 | 184 | 8.0 | 14.5 | 0.00 | 0.00 | 0.00 | 53 | 1013.6 |
| 20260503150240 | 14 | 215 | 4.8 | 8.0 | 0.00 | 0.00 | 0.00 | 53 | 1013.6 |
| 20260503140205 | 12 | 177 | 4.8 | 9.7 | 0.00 | 0.00 | 0.00 | 57 | 1014.0 |
| 20260503131134 | 11 | 198 | 1.6 | 1.6 | 0.00 | 0.00 | 0.00 | 58 | 1014.4 |
| 20260503130632 | 11 | 177 | 1.6 | 3.2 | 0.00 | 0.00 | 0.00 | 59 | 1014.7 |
| 20260503130129 | 11 | 199 | 4.8 | 9.7 | 0.00 | 0.00 | 0.00 | 60 | 1014.6 |
| 20260503110522 | 11 | 200 | 1.6 | 1.6 | 0.00 | 0.00 | 0.00 | 56 | 1015.6 |
| 20260503090409 | 11 | 234 | 3.2 | 3.2 | 0.00 | 0.00 | 0.00 | 57 | 1017.6 |
| 20260503081335 | 11 | 222 | 1.6 | 1.6 | 0.00 | 0.00 | 0.00 | 55 | 1017.8 |
| 20260503080832 | 11 | 256 | 0.0 | 1.6 | 0.00 | 0.00 | 0.00 | 55 | 1017.8 |
| 20260503080329 | 11 | 224 | 0.0 | 0.0 | 0.00 | 0.00 | 0.00 | 56 | 1018.0 |
| 20260503072800 | 11 | 180 | 3.2 | 4.8 | 0.00 | 0.00 | 0.00 | 55 | 1017.5 |
| 20260503072257 | 11 | 239 | 4.8 | 4.8 | 0.00 | 0.00 | 0.00 | 55 | 1017.7 |
| 20260503071752 | 11 | 212 | 3.2 | 4.8 | 0.00 | 0.00 | 0.00 | 54 | 1017.8 |
| 20260503071250 | 11 | 205 | 3.2 | 3.2 | 0.00 | 0.00 | 0.00 | 54 | 1017.9 |
| 20260503070746 | 11 | 198 | 3.2 | 3.2 | 0.00 | 0.00 | 0.00 | 54 | 1017.7 |
| 20260503070244 | 11 | 204 | 8.0 | 9.7 | 0.00 | 0.00 | 0.00 | 54 | 1018.0 |